Weather History for Hoonah, AK

Change the Weather History Date:

Friday, March 22, 2013

  Actual Average Record
Temperature  
Mean Temperature 24 °F -  
Max Temperature 34 °F 38 °F 57 °F (1998)
Min Temperature 13 °F 27 °F 13 °F (2013)
Degree Days  
Heating Degree Days 42    
Moisture  
Dew Point 19 °F    
Average Humidity 75    
Maximum Humidity 92    
Minimum Humidity 66    
Precipitation  
Precipitation 0.00 in - - ()
Sea Level Pressure  
Sea Level Pressure 30.35 in    
Wind  
Wind Speed 6 mph (East)    
Max Wind Speed 12 mph    
Max Gust Speed -    
Visibility 10 miles    
Events      
Averages and records for this station are not official NWS values.
T = Trace of Precipitation, MM = Missing Value Source: NWS Daily Summary

Daily Weather History Graph

Daily Weather History Graph

Search for Another Location

Airport:

Trip Planner

Search our weather history database for the weather conditions in past years. The results will help you decide how hot, cold, wet, or windy it might be!

Date:

Astronomy

Mar. 22, 2013 Rise Set
Actual Time 6:56 AM AKDT 7:21 PM AKDT
Civil Twilight 6:17 AM AKDT 8:01 PM AKDT
Nautical Twilight 5:30 AM AKDT 8:48 PM AKDT
Astronomical Twilight 4:38 AM AKDT 9:40 PM AKDT
Moon 2:05 PM AKDT (3/22) 4:55 AM AKDT (3/22)
Length of Visible Light 13h 43m
Length of Day
12h 24m
Waxing Gibbous, 78% of the Moon is Illuminated
Mar 22
Waxing Gibbous
Mar 27
Full
Apr 2
Last Quarter
Apr 10
New
Apr 18
First Quarter

Hourly Weather History & Observations

Time (AKDT) Temp. Windchill Dew Point Humidity Pressure Visibility Wind Dir Wind Speed Gust Speed Precip Events Conditions
12:56 AM 15.1 °F 6.4 °F 11.1 °F 84% 30.35 in 10.0 mi East 5.8 mph - N/A   Clear
1:56 AM 15.1 °F 7.7 °F 11.1 °F 84% 30.36 in 10.0 mi Variable 4.6 mph - N/A   Clear
2:56 AM 13.1 °F 7.1 °F 11.1 °F 92% 30.38 in 10.0 mi ESE 3.5 mph - N/A   Clear
3:56 AM 13.1 °F 0.9 °F 11.1 °F 92% 30.38 in 10.0 mi East 9.2 mph - N/A   Mostly Cloudy
4:56 AM 20.1 °F 11.3 °F 13.1 °F 74% 30.38 in 10.0 mi East 6.9 mph - N/A   Overcast
5:56 AM 16.2 °F 7.6 °F 13.1 °F 88% 30.38 in 10.0 mi ESE 5.8 mph - N/A   Scattered Clouds
6:56 AM 15.1 °F - 12.0 °F 88% 30.38 in 10.0 mi Calm Calm - N/A   Clear
7:56 AM 18.1 °F 10.0 °F 12.0 °F 77% 30.38 in 10.0 mi SE 5.8 mph - N/A   Mostly Cloudy
8:56 AM 22.1 °F - 14.0 °F 71% 30.38 in 10.0 mi Calm Calm - N/A   Overcast
9:56 AM 26.6 °F 22.6 °F 17.6 °F 69% 30.36 in 10.0 mi Variable 3.5 mph - N/A   Overcast
10:56 AM 29.1 °F 20.6 °F 19.0 °F 66% 30.37 in 10.0 mi East 9.2 mph - 0.00 in   Clear
11:56 AM 30.0 °F 21.1 °F 21.0 °F 69% 30.38 in 10.0 mi East 10.4 mph - N/A   Overcast
12:56 PM 30.2 °F 22.6 °F 21.2 °F 69% 30.37 in 10.0 mi East 8.1 mph - N/A   Mostly Cloudy
1:56 PM 32.0 °F 23.0 °F 22.1 °F 67% 30.37 in 10.0 mi East 11.5 mph - N/A   Scattered Clouds
2:56 PM 32.9 °F 24.7 °F 23.0 °F 67% 30.36 in 10.0 mi East 10.4 mph - N/A   Mostly Cloudy
3:56 PM 33.8 °F 27.7 °F 24.8 °F 70% 30.34 in 10.0 mi ENE 6.9 mph - N/A   Overcast
4:56 PM 34.0 °F 28.8 °F 25.2 °F 70% 30.34 in 10.0 mi ENE 5.8 mph - N/A   Overcast
5:56 PM 34.0 °F 28.0 °F 25.2 °F 70% 30.32 in 10.0 mi ENE 6.9 mph - N/A   Overcast
6:56 PM 34.0 °F 28.8 °F 25.2 °F 70% 30.32 in 10.0 mi ENE 5.8 mph - N/A   Overcast
7:56 PM 32.9 °F 27.5 °F 24.1 °F 70% 30.32 in 10.0 mi ENE 5.8 mph - N/A   Overcast
8:56 PM 32.9 °F 25.9 °F 24.1 °F 70% 30.32 in 10.0 mi East 8.1 mph - N/A   Overcast
9:56 PM 32.0 °F 27.5 °F 24.8 °F 75% 30.31 in 10.0 mi ENE 4.6 mph - N/A   Mostly Cloudy
10:56 PM 32.0 °F 27.5 °F 25.2 °F 76% 30.31 in 10.0 mi East 4.6 mph - N/A   Mostly Cloudy
11:56 PM 32.0 °F 26.4 °F 25.2 °F 76% 30.30 in 10.0 mi East 5.8 mph - N/A   Mostly Cloudy